Hourly Weather Nyiregyhaza

Today, 9 March, Tuesday

Time Temperature Precipitation Wind Pressure Humidity
00:00 -2°C° 0 mm 4 mps 755 mmHg 64%
01:00 -2°C° 0 mm 4 mps 756 mmHg 65%
02:00 -3°C° 0 mm 4 mps 756 mmHg 66%
03:00 -2°C° 0 mm 3 mps 755 mmHg 67%
04:00 -2°C° 0 mm 3 mps 755 mmHg 68%
05:00 -2°C° 0 mm 3 mps 755 mmHg 66%
06:00 -2°C° 0 mm 3 mps 756 mmHg 65%
07:00 -2°C° 0 mm 4 mps 756 mmHg 63%
08:00 -1°C° 0 mm 4 mps 756 mmHg 57%
09:00 +1°C° 0 mm 3 mps 756 mmHg 51%
10:00 +2°C° 0 mm 3 mps 756 mmHg 44%
11:00 +2°C° 0 mm 3 mps 755 mmHg 42%
12:00 +3°C° 0 mm 3 mps 755 mmHg 39%
13:00 +5°C° 0 mm 2 mps 755 mmHg 37%
14:00 +4°C° 0 mm 2 mps 754 mmHg 37%
15:00 +4°C° 0 mm 2 mps 754 mmHg 38%
16:00 +4°C° 0 mm 2 mps 754 mmHg 38%
17:00 +3°C° 0 mm 2 mps 754 mmHg 43%
18:00 +2°C° 0 mm 2 mps 754 mmHg 48%
19:00 +1°C° 0 mm 2 mps 754 mmHg 53%
20:00 +1°C° 0 mm 2 mps 754 mmHg 56%
21:00 -1°C° 0 mm 2 mps 754 mmHg 59%
22:00 -1°C° 0 mm 2 mps 754 mmHg 63%
23:00 -1°C° 0 mm 2 mps 754 mmHg 65%

Tomorrow, 10 March, Wednesday

Time Temperature Precipitation Wind Pressure Humidity
00:00 -1°C° 0 mm 2 mps 754 mmHg 67%
01:00 -1°C° 0 mm 2 mps 754 mmHg 69%
02:00 -1°C° 0 mm 2 mps 754 mmHg 69%
03:00 -1°C° 0 mm 2 mps 753 mmHg 69%
04:00 -1°C° 0 mm 2 mps 753 mmHg 70%
05:00 -1°C° 0 mm 2 mps 753 mmHg 68%
06:00 -1°C° 0 mm 2 mps 753 mmHg 66%
07:00 -1°C° 0 mm 2 mps 754 mmHg 64%
08:00 0°C° 0 mm 3 mps 754 mmHg 57%
09:00 +1°C° 0 mm 3 mps 754 mmHg 51%
10:00 +3°C° 0 mm 4 mps 754 mmHg 45%
11:00 +3°C° 0 mm 4 mps 754 mmHg 43%
12:00 +4°C° 0 mm 4 mps 754 mmHg 42%
13:00 +4°C° 0 mm 4 mps 753 mmHg 40%
14:00 +3°C° 0 mm 5 mps 753 mmHg 43%
15:00 +3°C° 0 mm 5 mps 753 mmHg 45%
16:00 +3°C° 0 mm 5 mps 753 mmHg 48%
17:00 +1°C° 0 mm 5 mps 754 mmHg 53%
18:00 0°C° 0 mm 4 mps 754 mmHg 59%
19:00 -1°C° 0 mm 4 mps 755 mmHg 64%
20:00 -1°C° 0 mm 4 mps 755 mmHg 66%
21:00 -2°C° 0 mm 4 mps 755 mmHg 67%
22:00 -2°C° 0 mm 4 mps 756 mmHg 69%
23:00 -1°C° 0 mm 3 mps 756 mmHg 69%

Day after tomorrow, 11 March, Thursday

Time Temperature Precipitation Wind Pressure Humidity
00:00 -2°C° 0 mm 3 mps 756 mmHg 69%
01:00 -2°C° 0 mm 3 mps 756 mmHg 69%
02:00 -2°C° 0 mm 2 mps 756 mmHg 69%
03:00 -2°C° 0 mm 2 mps 756 mmHg 69%
04:00 -2°C° 0 mm 2 mps 756 mmHg 69%
05:00 -2°C° 0 mm 2 mps 756 mmHg 67%
06:00 -2°C° 0 mm 2 mps 757 mmHg 65%
07:00 +1°C° 0 mm 1 mps 757 mmHg 63%
08:00 +2°C° 0 mm 1 mps 757 mmHg 57%
09:00 +3°C° 0 mm 1 mps 757 mmHg 51%
10:00 +4°C° 0 mm 1 mps 757 mmHg 45%
11:00 +4°C° 0 mm 2 mps 756 mmHg 43%
12:00 +5°C° 0 mm 2 mps 756 mmHg 41%
13:00 +5°C° 0 mm 3 mps 756 mmHg 39%
14:00 +5°C° 0 mm 3 mps 756 mmHg 42%
15:00 +5°C° 0 mm 3 mps 755 mmHg 44%
16:00 +5°C° 0 mm 3 mps 755 mmHg 46%
17:00 +4°C° 0 mm 3 mps 755 mmHg 50%
18:00 +3°C° 0 mm 3 mps 755 mmHg 54%
19:00 +3°C° 0 mm 3 mps 755 mmHg 58%
20:00 +3°C° 0 mm 4 mps 755 mmHg 58%
21:00 +3°C° 0 mm 4 mps 755 mmHg 59%
22:00 +2°C° 0 mm 5 mps 755 mmHg 59%
23:00 +2°C° 0 mm 5 mps 754 mmHg 59%

12 March, Friday

Time Temperature Precipitation Wind Pressure Humidity
00:00 +1°C° 0 mm 5 mps 754 mmHg 59%
01:00 +1°C° 0 mm 5 mps 754 mmHg 59%
02:00 +1°C° 0 mm 5 mps 753 mmHg 60%
03:00 +1°C° 0 mm 5 mps 753 mmHg 62%
04:00 +1°C° 0 mm 5 mps 753 mmHg 63%
05:00 0°C° 0.4 mm 5 mps 753 mmHg 72%
06:00 -1°C° 0.4 mm 6 mps 753 mmHg 82%
07:00 -2°C° 0.4 mm 6 mps 753 mmHg 91%
08:00 0°C° 0.2 mm 5 mps 753 mmHg 91%
09:00 +1°C° 0.2 mm 5 mps 753 mmHg 91%
10:00 +1°C° 0.2 mm 4 mps 754 mmHg 91%
11:00 +3°C° 0.1 mm 4 mps 754 mmHg 89%
12:00 +4°C° 0.1 mm 4 mps 754 mmHg 87%
13:00 +5°C° 0.1 mm 4 mps 754 mmHg 86%
14:00 +6°C° 0 mm 4 mps 753 mmHg 83%
15:00 +6°C° 0 mm 4 mps 753 mmHg 81%
16:00 +8°C° 0 mm 3 mps 753 mmHg 79%
17:00 +6°C° 0 mm 4 mps 753 mmHg 82%
18:00 +5°C° 0 mm 4 mps 753 mmHg 85%
19:00 +3°C° 0 mm 5 mps 754 mmHg 87%
20:00 +4°C° 0.1 mm 4 mps 754 mmHg 87%
21:00 +4°C° 0.1 mm 4 mps 754 mmHg 87%
22:00 +4°C° 0.1 mm 3 mps 754 mmHg 87%
23:00 +3°C° 0 mm 3 mps 754 mmHg 87%

13 March, Saturday

Time Temperature Precipitation Wind Pressure Humidity
00:00 +3°C° 0 mm 3 mps 753 mmHg 87%
01:00 +4°C° 0 mm 2 mps 753 mmHg 87%
02:00 +4°C° 0 mm 2 mps 753 mmHg 88%
03:00 +4°C° 0 mm 2 mps 753 mmHg 90%
04:00 +4°C° 0 mm 2 mps 753 mmHg 91%
05:00 +4°C° 0 mm 2 mps 753 mmHg 92%
06:00 +4°C° 0 mm 2 mps 753 mmHg 92%
07:00 +4°C° 0 mm 2 mps 753 mmHg 93%
08:00 +6°C° 0 mm 2 mps 753 mmHg 88%
09:00 +7°C° 0 mm 3 mps 754 mmHg 83%
10:00 +8°C° 0 mm 3 mps 754 mmHg 78%
11:00 +8°C° 0 mm 4 mps 753 mmHg 73%
12:00 +10°C° 0 mm 4 mps 753 mmHg 67%
13:00 +11°C° 0 mm 4 mps 753 mmHg 62%
14:00 +11°C° 0 mm 4 mps 753 mmHg 62%
15:00 +11°C° 0 mm 4 mps 753 mmHg 62%
16:00 +11°C° 0 mm 4 mps 752 mmHg 63%
17:00 +10°C° 0 mm 4 mps 752 mmHg 68%
18:00 +8°C° 0 mm 4 mps 752 mmHg 74%
19:00 +6°C° 0 mm 4 mps 752 mmHg 80%
20:00 +6°C° 0 mm 4 mps 752 mmHg 82%
21:00 +6°C° 0 mm 4 mps 752 mmHg 84%
22:00 +5°C° 0 mm 5 mps 752 mmHg 87%
23:00 +5°C° 0 mm 4 mps 752 mmHg 88%

14 March, Sunday

Time Temperature Precipitation Wind Pressure Humidity
00:00 +4°C° 0 mm 4 mps 751 mmHg 90%
01:00 +4°C° 0 mm 4 mps 751 mmHg 92%
02:00 +4°C° 0 mm 3 mps 750 mmHg 91%
03:00 +3°C° 0 mm 3 mps 750 mmHg 90%
04:00 +3°C° 0 mm 3 mps 749 mmHg 89%
05:00 +3°C° 0 mm 3 mps 749 mmHg 87%
06:00 +4°C° 0 mm 3 mps 748 mmHg 84%
07:00 +4°C° 0 mm 3 mps 748 mmHg 82%
08:00 +5°C° 0.1 mm 4 mps 747 mmHg 78%
09:00 +7°C° 0.1 mm 4 mps 747 mmHg 75%
10:00 +8°C° 0.1 mm 5 mps 746 mmHg 71%
11:00 +9°C° 0.1 mm 5 mps 746 mmHg 68%
12:00 +10°C° 0.1 mm 5 mps 745 mmHg 65%
13:00 +13°C° 0.1 mm 6 mps 745 mmHg 62%
14:00 +12°C° 0.4 mm 5 mps 744 mmHg 66%
15:00 +12°C° 0.4 mm 5 mps 744 mmHg 71%
16:00 +11°C° 0.4 mm 4 mps 743 mmHg 75%
17:00 +10°C° 0.8 mm 4 mps 743 mmHg 80%
18:00 +9°C° 0.8 mm 3 mps 743 mmHg 86%
19:00 +8°C° 0.8 mm 2 mps 743 mmHg 91%
20:00 +6°C° 1 mm 4 mps 744 mmHg 90%
21:00 +5°C° 1 mm 5 mps 744 mmHg 88%
22:00 +3°C° 1 mm 7 mps 744 mmHg 86%
23:00 +3°C° 0.7 mm 6 mps 744 mmHg 86%
Show more